Year,Month,Day,Hour,Minute,Value (Times are PST for temperature in C)
2010,08,18,08,47,15.90
2010,08,18,08,48,16.00
2010,08,18,08,49,16.10
2010,08,18,08,50,16.20
2010,08,18,08,51,16.20
2010,08,18,08,52,16.30
2010,08,18,08,53,16.30
2010,08,18,08,54,16.30
2010,08,18,08,55,16.30
2010,08,18,08,56,16.30
2010,08,18,08,57,16.30
2010,08,18,08,58,16.30
2010,08,18,08,59,16.30
2010,08,18,09,00,16.40
2010,08,18,09,01,16.40
2010,08,18,09,02,16.40
2010,08,18,09,03,16.40
2010,08,18,09,04,16.40
2010,08,18,09,05,16.40
2010,08,18,09,06,16.40
2010,08,18,09,07,16.50
2010,08,18,09,08,16.60
2010,08,18,09,09,16.60
2010,08,18,09,10,16.60
2010,08,18,09,11,16.60
2010,08,18,09,12,16.70
2010,08,18,09,13,16.70
2010,08,18,09,14,16.80
2010,08,18,09,15,16.90
2010,08,18,09,16,16.90
2010,08,18,09,17,17.00
2010,08,18,09,18,17.10
2010,08,18,09,19,17.10
2010,08,18,09,20,17.10
2010,08,18,09,21,17.20
2010,08,18,09,22,17.20
2010,08,18,09,23,17.10
2010,08,18,09,24,17.10
2010,08,18,09,25,17.10
2010,08,18,09,26,17.00
2010,08,18,09,27,16.90
2010,08,18,09,28,17.00
2010,08,18,09,29,17.00
2010,08,18,09,30,17.10
2010,08,18,09,31,17.20
2010,08,18,09,32,17.20
2010,08,18,09,33,17.20
2010,08,18,09,34,17.20
2010,08,18,09,35,17.20
2010,08,18,09,36,17.20
2010,08,18,09,37,17.20
2010,08,18,09,38,17.30
2010,08,18,09,39,17.30
2010,08,18,09,40,17.30
2010,08,18,09,41,17.30
2010,08,18,09,42,17.30
2010,08,18,09,43,17.30
2010,08,18,09,44,17.20
2010,08,18,09,45,17.20
2010,08,18,09,46,17.20
2010,08,18,09,47,17.20
2010,08,18,09,48,17.20
2010,08,18,09,49,17.20
2010,08,18,09,50,17.20
2010,08,18,09,51,17.10
2010,08,18,09,52,17.10
2010,08,18,09,53,17.20
2010,08,18,09,54,17.10
2010,08,18,09,55,17.10
2010,08,18,09,56,17.00
2010,08,18,09,57,17.00
2010,08,18,09,58,17.00
2010,08,18,09,59,16.90
2010,08,18,10,00,16.90
2010,08,18,10,01,17.00
2010,08,18,10,02,17.10
2010,08,18,10,03,17.00
2010,08,18,10,04,17.10
2010,08,18,10,05,17.10
2010,08,18,10,06,17.10
2010,08,18,10,07,17.10
2010,08,18,10,08,17.20
2010,08,18,10,09,17.20
2010,08,18,10,10,17.20
2010,08,18,10,11,17.30
2010,08,18,10,12,17.30
2010,08,18,10,13,17.30
2010,08,18,10,14,17.30
2010,08,18,10,15,17.40
2010,08,18,10,16,17.40
2010,08,18,10,17,17.40
2010,08,18,10,18,17.40
2010,08,18,10,19,17.40
2010,08,18,10,20,17.50
2010,08,18,10,21,17.50
2010,08,18,10,22,17.70
2010,08,18,10,23,17.70
2010,08,18,10,24,17.80
2010,08,18,10,25,17.80
2010,08,18,10,26,17.80
2010,08,18,10,27,17.90
2010,08,18,10,28,17.90
2010,08,18,10,29,17.90
2010,08,18,10,30,17.90
2010,08,18,10,31,17.90
2010,08,18,10,32,17.90
2010,08,18,10,33,17.90
2010,08,18,10,34,17.90
2010,08,18,10,35,17.90
2010,08,18,10,36,17.90
2010,08,18,10,37,18.00
2010,08,18,10,38,18.00
2010,08,18,10,39,18.00
2010,08,18,10,40,18.00
2010,08,18,10,41,18.00
2010,08,18,10,42,18.00
2010,08,18,10,43,18.10
2010,08,18,10,44,18.10
2010,08,18,10,45,18.10
2010,08,18,10,46,17.90
2010,08,18,10,47,17.90
2010,08,18,10,48,17.80
2010,08,18,10,49,17.80
2010,08,18,10,50,17.80
2010,08,18,10,51,17.80
2010,08,18,10,52,17.90
2010,08,18,10,53,17.90
2010,08,18,10,54,18.00
2010,08,18,10,55,18.00
2010,08,18,10,56,18.10
2010,08,18,10,57,18.10
2010,08,18,10,58,18.10
2010,08,18,10,59,18.10
2010,08,18,11,00,18.10
2010,08,18,11,01,18.00
2010,08,18,11,02,18.00
2010,08,18,11,03,18.10
2010,08,18,11,04,18.10
2010,08,18,11,05,18.20
2010,08,18,11,06,18.20
2010,08,18,11,07,18.20
2010,08,18,11,08,18.20
2010,08,18,11,09,18.20
2010,08,18,11,10,18.30
2010,08,18,11,11,18.20
2010,08,18,11,12,18.20
2010,08,18,11,13,18.20
2010,08,18,11,14,18.20
2010,08,18,11,15,18.20
2010,08,18,11,16,18.20
2010,08,18,11,17,18.30
2010,08,18,11,18,18.20
2010,08,18,11,19,18.20
2010,08,18,11,20,18.20
2010,08,18,11,21,18.30
2010,08,18,11,22,18.40
2010,08,18,11,23,18.50
2010,08,18,11,24,18.50
2010,08,18,11,25,18.50
2010,08,18,11,26,18.40
2010,08,18,11,27,18.40
2010,08,18,11,28,18.50
2010,08,18,11,29,18.40
2010,08,18,11,30,18.40
2010,08,18,11,31,18.50
2010,08,18,11,32,18.50
2010,08,18,11,33,18.50
2010,08,18,11,34,18.50
2010,08,18,11,35,18.50
2010,08,18,11,36,18.60
2010,08,18,11,37,18.60
2010,08,18,11,38,18.60
2010,08,18,11,39,18.50
2010,08,18,11,40,18.60
2010,08,18,11,41,18.60
2010,08,18,11,42,18.60
2010,08,18,11,43,18.60
2010,08,18,11,44,18.60
2010,08,18,11,45,18.70
2010,08,18,11,46,18.70
2010,08,18,11,47,18.70
2010,08,18,11,48,18.80
2010,08,18,11,49,18.70
2010,08,18,11,50,18.70
2010,08,18,11,51,18.60
2010,08,18,11,52,18.60
2010,08,18,11,53,18.70
2010,08,18,11,54,18.80
2010,08,18,11,55,18.80
2010,08,18,11,56,18.90
2010,08,18,11,57,18.90
2010,08,18,11,58,18.90
2010,08,18,11,59,18.80
2010,08,18,12,00,18.90
2010,08,18,12,01,18.90
2010,08,18,12,02,18.90
2010,08,18,12,03,19.00
2010,08,18,12,04,19.10
2010,08,18,12,05,19.10
2010,08,18,12,06,19.10
2010,08,18,12,07,19.20
2010,08,18,12,08,19.10
2010,08,18,12,09,19.00
2010,08,18,12,10,18.90
2010,08,18,12,11,18.80
2010,08,18,12,12,18.80
2010,08,18,12,13,18.70
2010,08,18,12,14,18.70
2010,08,18,12,15,18.70
2010,08,18,12,16,18.80
2010,08,18,12,17,18.90
2010,08,18,12,18,19.00
2010,08,18,12,19,19.00
2010,08,18,12,20,19.10
2010,08,18,12,21,19.20
2010,08,18,12,22,19.30
2010,08,18,12,23,19.30
2010,08,18,12,24,19.30
2010,08,18,12,25,19.30
2010,08,18,12,26,19.30
2010,08,18,12,27,19.30
2010,08,18,12,28,19.30
2010,08,18,12,29,19.30
2010,08,18,12,30,19.30
2010,08,18,12,31,19.40
2010,08,18,12,32,19.40
2010,08,18,12,33,19.40
2010,08,18,12,34,19.50
2010,08,18,12,35,19.60
2010,08,18,12,36,19.60
2010,08,18,12,37,19.70
2010,08,18,12,38,19.60
2010,08,18,12,39,19.60
2010,08,18,12,40,19.50
2010,08,18,12,41,19.50
2010,08,18,12,42,19.40
2010,08,18,12,43,19.30
2010,08,18,12,44,19.30
2010,08,18,12,45,19.40
2010,08,18,12,46,19.40
2010,08,18,12,47,19.50
2010,08,18,12,48,19.60
2010,08,18,12,49,19.70
2010,08,18,12,50,19.70
2010,08,18,12,51,19.70
2010,08,18,12,52,19.70
2010,08,18,12,53,19.70
2010,08,18,12,54,19.80
2010,08,18,12,55,19.80
2010,08,18,12,56,19.80
2010,08,18,12,57,19.90
2010,08,18,12,58,20.00
2010,08,18,12,59,20.10
2010,08,18,13,00,20.20
2010,08,18,13,01,20.20
2010,08,18,13,02,20.20
2010,08,18,13,03,20.10
2010,08,18,13,04,20.10
2010,08,18,13,05,20.00
2010,08,18,13,06,20.00
2010,08,18,13,07,20.00
2010,08,18,13,08,20.00
2010,08,18,13,09,20.10
2010,08,18,13,10,20.20
2010,08,18,13,11,20.30
2010,08,18,13,12,20.40
2010,08,18,13,13,20.40
2010,08,18,13,14,20.40
2010,08,18,13,15,20.40
2010,08,18,13,16,20.50
2010,08,18,13,17,20.40
2010,08,18,13,18,20.30
2010,08,18,13,19,20.20
2010,08,18,13,20,20.20
2010,08,18,13,21,20.10
2010,08,18,13,22,20.10
2010,08,18,13,23,20.10
2010,08,18,13,24,20.10
2010,08,18,13,25,20.10
2010,08,18,13,26,20.20
2010,08,18,13,27,20.20
2010,08,18,13,28,20.20
2010,08,18,13,29,20.30
2010,08,18,13,30,20.30
2010,08,18,13,31,20.30
2010,08,18,13,32,20.30
2010,08,18,13,33,20.30
2010,08,18,13,34,20.30
2010,08,18,13,35,20.30
2010,08,18,13,36,20.40
2010,08,18,13,37,20.40
2010,08,18,13,38,20.30
2010,08,18,13,39,20.30
2010,08,18,13,40,20.20
2010,08,18,13,41,20.20
2010,08,18,13,42,20.20
2010,08,18,13,43,20.10
2010,08,18,13,44,20.10
2010,08,18,13,45,20.20
2010,08,18,13,46,20.20
2010,08,18,13,47,20.30
2010,08,18,13,48,20.30
2010,08,18,13,49,20.40
2010,08,18,13,50,20.50
2010,08,18,13,51,20.60
2010,08,18,13,52,20.60
2010,08,18,13,53,20.60
2010,08,18,13,54,20.70
2010,08,18,13,55,20.70
2010,08,18,13,56,20.70
2010,08,18,13,57,20.80
2010,08,18,13,58,20.80
2010,08,18,13,59,20.90
2010,08,18,14,00,20.80
2010,08,18,14,01,20.80
2010,08,18,14,02,20.80
2010,08,18,14,03,20.80
2010,08,18,14,04,20.80
2010,08,18,14,05,20.80
2010,08,18,14,06,20.90
2010,08,18,14,07,21.00
2010,08,18,14,08,21.10
2010,08,18,14,09,21.10
2010,08,18,14,10,21.20
2010,08,18,14,11,21.20
2010,08,18,14,12,21.30
2010,08,18,14,13,21.30
2010,08,18,14,14,21.40
2010,08,18,14,15,21.40
2010,08,18,14,16,21.30
2010,08,18,14,17,21.30
2010,08,18,14,18,21.30
2010,08,18,14,19,21.40
2010,08,18,14,20,21.40
2010,08,18,14,21,21.30
2010,08,18,14,22,21.20
2010,08,18,14,23,21.20
2010,08,18,14,24,21.20
2010,08,18,14,25,21.20
2010,08,18,14,26,21.30
2010,08,18,14,27,21.30
2010,08,18,14,28,21.40
2010,08,18,14,29,21.40
2010,08,18,14,30,21.40
2010,08,18,14,31,21.30
2010,08,18,14,32,21.30
2010,08,18,14,33,21.20
2010,08,18,14,34,21.20
2010,08,18,14,35,21.20
2010,08,18,14,36,21.20
2010,08,18,14,37,21.20
2010,08,18,14,38,21.20
2010,08,18,14,39,21.20
2010,08,18,14,40,21.20
2010,08,18,14,41,21.20
2010,08,18,14,42,21.20
2010,08,18,14,43,21.30
2010,08,18,14,44,21.30
2010,08,18,14,45,21.30
2010,08,18,14,46,21.30
2010,08,18,14,47,21.30
2010,08,18,14,48,21.30
2010,08,18,14,49,21.30
2010,08,18,14,50,21.30
2010,08,18,14,51,21.40
2010,08,18,14,52,21.40
2010,08,18,14,53,21.30
2010,08,18,14,54,21.30
2010,08,18,14,55,21.30
2010,08,18,14,56,21.30
2010,08,18,14,57,21.30
2010,08,18,14,58,21.30
2010,08,18,14,59,21.40
2010,08,18,15,00,21.60
2010,08,18,15,01,21.50
2010,08,18,15,02,21.50
2010,08,18,15,03,21.50
2010,08,18,15,04,21.50
2010,08,18,15,05,21.60
2010,08,18,15,06,21.70
2010,08,18,15,07,21.70
2010,08,18,15,08,21.70
2010,08,18,15,09,21.60
2010,08,18,15,10,21.60
2010,08,18,15,11,21.70
2010,08,18,15,12,21.60
2010,08,18,15,13,21.70
2010,08,18,15,14,21.70
2010,08,18,15,15,21.70
2010,08,18,15,16,21.70
2010,08,18,15,17,21.60
2010,08,18,15,18,21.50
2010,08,18,15,19,21.60
2010,08,18,15,20,21.70
2010,08,18,15,21,21.80
2010,08,18,15,22,21.80
2010,08,18,15,23,21.70
2010,08,18,15,24,21.70
2010,08,18,15,25,21.70
2010,08,18,15,26,21.70
2010,08,18,15,27,21.70
2010,08,18,15,28,21.70
2010,08,18,15,29,21.60
2010,08,18,15,30,21.60
2010,08,18,15,31,21.70
2010,08,18,15,32,21.60
2010,08,18,15,33,21.70
2010,08,18,15,34,21.70
2010,08,18,15,35,21.70
2010,08,18,15,36,21.70
2010,08,18,15,37,21.70
2010,08,18,15,38,21.50
2010,08,18,15,39,21.40
2010,08,18,15,40,21.40
2010,08,18,15,41,21.50
2010,08,18,15,42,21.50
2010,08,18,15,43,21.50
2010,08,18,15,44,21.60
2010,08,18,15,45,21.60
2010,08,18,15,46,21.80
2010,08,18,15,47,21.90
2010,08,18,15,48,22.10
2010,08,18,15,49,22.30
2010,08,18,15,50,22.20
2010,08,18,15,51,22.20
2010,08,18,15,52,22.10
2010,08,18,15,53,22.20
2010,08,18,15,54,22.20
2010,08,18,15,55,22.30
2010,08,18,15,56,22.40
2010,08,18,15,57,22.40
2010,08,18,15,58,22.40
2010,08,18,15,59,22.50
2010,08,18,16,00,22.50
2010,08,18,16,01,22.50
2010,08,18,16,02,22.40
2010,08,18,16,03,22.40
2010,08,18,16,04,22.50
2010,08,18,16,05,22.60
2010,08,18,16,06,22.60
2010,08,18,16,07,22.50
2010,08,18,16,08,22.40
2010,08,18,16,09,22.30
2010,08,18,16,10,22.40
2010,08,18,16,11,22.30
2010,08,18,16,12,22.30
2010,08,18,16,13,22.20
2010,08,18,16,14,22.20
2010,08,18,16,15,22.20
2010,08,18,16,16,22.30
2010,08,18,16,17,22.30
2010,08,18,16,18,22.30
2010,08,18,16,19,22.30
2010,08,18,16,20,22.30
2010,08,18,16,21,22.30
2010,08,18,16,22,22.30
2010,08,18,16,23,22.30
2010,08,18,16,24,22.30
2010,08,18,16,25,22.30
2010,08,18,16,26,22.30
2010,08,18,16,27,22.40
2010,08,18,16,28,22.40
2010,08,18,16,29,22.40
2010,08,18,16,30,22.40
2010,08,18,16,31,22.30
2010,08,18,16,32,22.20
2010,08,18,16,33,22.20
2010,08,18,16,34,22.20
2010,08,18,16,35,22.30
2010,08,18,16,36,22.30
2010,08,18,16,37,22.40
2010,08,18,16,38,22.40
2010,08,18,16,39,22.50
2010,08,18,16,40,22.50
2010,08,18,16,41,22.60
2010,08,18,16,42,22.60
2010,08,18,16,43,22.60
2010,08,18,16,44,22.60
2010,08,18,16,45,22.60
2010,08,18,16,46,22.60
2010,08,18,16,47,22.50
2010,08,18,16,48,22.50
2010,08,18,16,49,22.50
2010,08,18,16,50,22.60
2010,08,18,16,51,22.80
2010,08,18,16,52,22.90
2010,08,18,16,53,23.00
2010,08,18,16,54,23.00
2010,08,18,16,55,23.10
2010,08,18,16,56,23.10
2010,08,18,16,57,23.00
2010,08,18,16,58,23.00
2010,08,18,16,59,22.80
2010,08,18,17,00,22.70
2010,08,18,17,01,22.60
2010,08,18,17,02,22.60
2010,08,18,17,03,22.60
2010,08,18,17,04,22.60
2010,08,18,17,05,22.50
2010,08,18,17,06,22.50
2010,08,18,17,07,22.50
2010,08,18,17,08,22.60
2010,08,18,17,09,22.70
2010,08,18,17,10,22.80
2010,08,18,17,11,22.80
2010,08,18,17,12,22.90
2010,08,18,17,13,23.00
2010,08,18,17,14,23.10
2010,08,18,17,15,23.10
2010,08,18,17,16,23.10
2010,08,18,17,17,23.10
2010,08,18,17,18,23.10
2010,08,18,17,19,22.90
2010,08,18,17,20,22.80
2010,08,18,17,21,22.70
2010,08,18,17,22,22.70
2010,08,18,17,23,22.60
2010,08,18,17,24,22.40
2010,08,18,17,25,22.30
2010,08,18,17,26,22.10
2010,08,18,17,27,22.00
2010,08,18,17,28,21.80
2010,08,18,17,29,21.80
2010,08,18,17,30,21.70
2010,08,18,17,31,21.70
2010,08,18,17,32,21.70
2010,08,18,17,33,21.70
2010,08,18,17,34,21.80
2010,08,18,17,35,21.90
2010,08,18,17,36,21.90
2010,08,18,17,37,22.00
2010,08,18,17,38,22.10
2010,08,18,17,39,22.20
2010,08,18,17,40,22.10
2010,08,18,17,41,22.20
2010,08,18,17,42,22.20
2010,08,18,17,43,22.20
2010,08,18,17,44,22.20
2010,08,18,17,45,22.20
2010,08,18,17,46,22.10
2010,08,18,17,47,22.20
2010,08,18,17,48,22.10
2010,08,18,17,49,22.00
2010,08,18,17,50,22.00
2010,08,18,17,51,22.00
2010,08,18,17,52,22.10
2010,08,18,17,53,22.20
2010,08,18,17,54,22.30
2010,08,18,17,55,22.30
2010,08,18,17,56,22.30
2010,08,18,17,57,22.40
2010,08,18,17,58,22.40
2010,08,18,17,59,22.40
2010,08,18,18,00,22.40
2010,08,18,18,01,22.30
2010,08,18,18,02,22.30
2010,08,18,18,03,22.30
2010,08,18,18,04,22.30
2010,08,18,18,05,22.40
2010,08,18,18,06,22.40
2010,08,18,18,07,22.50
2010,08,18,18,08,22.50
2010,08,18,18,09,22.50
2010,08,18,18,10,22.50
2010,08,18,18,11,22.60
2010,08,18,18,12,22.60
2010,08,18,18,13,22.60
2010,08,18,18,14,22.50
2010,08,18,18,15,22.40
2010,08,18,18,16,22.40
2010,08,18,18,17,22.40
2010,08,18,18,18,22.40
2010,08,18,18,19,22.40
2010,08,18,18,20,22.40
2010,08,18,18,21,22.30
2010,08,18,18,22,22.20
2010,08,18,18,23,22.10
2010,08,18,18,24,22.10
2010,08,18,18,25,22.10
2010,08,18,18,26,22.10
2010,08,18,18,27,22.00
2010,08,18,18,28,22.00
2010,08,18,18,29,21.90
2010,08,18,18,30,21.90
2010,08,18,18,31,22.00
2010,08,18,18,32,22.00
2010,08,18,18,33,22.10
2010,08,18,18,34,22.10
2010,08,18,18,35,22.10
2010,08,18,18,36,22.10
2010,08,18,18,37,22.00
2010,08,18,18,38,22.00
2010,08,18,18,39,22.00
2010,08,18,18,40,21.90
2010,08,18,18,41,21.80
2010,08,18,18,42,21.70
2010,08,18,18,43,21.60
2010,08,18,18,44,21.50
2010,08,18,18,45,21.50
2010,08,18,18,46,21.40
2010,08,18,18,47,21.30
2010,08,18,18,48,21.20
2010,08,18,18,49,21.20
2010,08,18,18,50,21.10
2010,08,18,18,51,21.00
2010,08,18,18,52,20.90
2010,08,18,18,53,20.80
2010,08,18,18,54,20.70
2010,08,18,18,55,20.60
2010,08,18,18,56,20.60
2010,08,18,18,57,20.50
2010,08,18,18,58,20.50
2010,08,18,18,59,20.40
2010,08,18,19,00,20.40
2010,08,18,19,01,20.30
2010,08,18,19,02,20.30
2010,08,18,19,03,20.20
2010,08,18,19,04,20.20
2010,08,18,19,05,20.10
2010,08,18,19,06,20.10
2010,08,18,19,07,20.10
2010,08,18,19,08,20.00
2010,08,18,19,09,20.00
2010,08,18,19,10,19.90
2010,08,18,19,11,19.90
2010,08,18,19,12,19.90
2010,08,18,19,13,19.80
2010,08,18,19,14,19.80
2010,08,18,19,15,19.80
2010,08,18,19,16,19.80
2010,08,18,19,17,19.80
2010,08,18,19,18,19.80
2010,08,18,19,19,19.70
2010,08,18,19,20,19.70
2010,08,18,19,21,19.60
2010,08,18,19,22,19.60
2010,08,18,19,23,19.60
2010,08,18,19,24,19.60
2010,08,18,19,25,19.50
2010,08,18,19,26,19.50
2010,08,18,19,27,19.50
2010,08,18,19,28,19.40
2010,08,18,19,29,19.40
2010,08,18,19,30,19.30
2010,08,18,19,31,19.30
2010,08,18,19,32,19.30
2010,08,18,19,33,19.20
2010,08,18,19,34,19.20
2010,08,18,19,35,19.10
2010,08,18,19,36,19.10
2010,08,18,19,37,19.00
2010,08,18,19,38,19.00
2010,08,18,19,39,18.90
2010,08,18,19,40,18.90
2010,08,18,19,41,18.90
2010,08,18,19,42,18.90
2010,08,18,19,43,18.80
2010,08,18,19,44,18.80
2010,08,18,19,45,18.80
2010,08,18,19,46,18.80
2010,08,18,19,47,18.80
2010,08,18,19,48,18.70
2010,08,18,19,49,18.70
2010,08,18,19,50,18.70
2010,08,18,19,51,18.70
2010,08,18,19,52,18.60
2010,08,18,19,53,18.60
2010,08,18,19,54,18.50
2010,08,18,19,55,18.50
2010,08,18,19,56,18.40
2010,08,18,19,57,18.40
2010,08,18,19,58,18.30
2010,08,18,19,59,18.30
2010,08,18,20,00,18.20
2010,08,18,20,01,18.20
2010,08,18,20,02,18.20
2010,08,18,20,03,18.10
2010,08,18,20,04,18.10
2010,08,18,20,05,18.00
2010,08,18,20,06,18.00
2010,08,18,20,07,17.90
2010,08,18,20,08,17.90
2010,08,18,20,09,17.90
2010,08,18,20,10,17.80
2010,08,18,20,11,17.80
2010,08,18,20,12,17.80
2010,08,18,20,13,17.70
2010,08,18,20,14,17.70
2010,08,18,20,15,17.70
2010,08,18,20,16,17.60
2010,08,18,20,17,17.60
2010,08,18,20,18,17.60
2010,08,18,20,19,17.50
2010,08,18,20,20,17.50
2010,08,18,20,21,17.50
2010,08,18,20,22,17.40
2010,08,18,20,23,17.40
2010,08,18,20,24,17.40
2010,08,18,20,25,17.40
2010,08,18,20,26,17.40
2010,08,18,20,27,17.30
2010,08,18,20,28,17.30
2010,08,18,20,29,17.30
2010,08,18,20,30,17.30
2010,08,18,20,31,17.30
2010,08,18,20,32,17.30
2010,08,18,20,33,17.30
2010,08,18,20,34,17.30
2010,08,18,20,35,17.30
2010,08,18,20,36,17.30
2010,08,18,20,37,17.30
2010,08,18,20,38,17.30
